Dewpoint
49 48 46 46 46 47 48 47 48 47 47 47 46 46 47 47 49 51 50 47 45 46 46 46 47 47 47 47 47 47 47 45 45 43 39 36 41 47 49 50 51 51 53 51 50 44 40 32 30 29 25 23 23 19 18 23 26 23 21 18 16 13 9 9 7 6 7 7 7 9 8 6 6 8 11 50 60 61 63 63 64 64 64 64 64 64 64 64
48 49 48 47 47 47 48 48 48 48 48 48 47 46 47 47 47 48 50 51 48 46 46 46 46 47 47 46 46 47 45 45 43 42 41 40 46 51 54 56 57 54 51 47 44 44 41 33 27 29 25 24 28 16 22 19 25 19 20 17 10 14 11 10 8 8 7 6 7 7 9 7 6 11 13 26 55 58 61 62 64 62 63 64 64 64 64 64
48 48 49 49 48 47 48 48 48 47 47 47 47 47 47 47 48 48 48 50 50 47 46 46 46 47 47 47 47 47 45 43 42 33 28 49 53 52 51 51 56 58 50 45 46 42 35 31 27 28 26 23 24 16 22 17 23 21 18 14 12 15 14 10 8 8 8 8 7 7 9 7 9 11 15 17 45 57 60 61 62 62 61 62 63 63 63 63
49 49 49 49 49 48 48 48 48 48 47 47 47 47 47 46 48 48 49 49 50 49 46 46 46 46 47 46 47 44 44 43 20 23 28 53 52 50 49 54 59 58 50 46 39 38 34 31 27 27 27 23 23 26 19 17 17 20 20 15 13 16 14 13 11 9 8 8 7 7 12 11 10 15 36 34 53 53 58 63 62 62 62 62 63 63 63 62
49 48 48 49 49 48 48 48 48 48 48 48 48 48 48 48 49 49 49 49 49 49 45 46 46 46 45 47 46 43 42 4 -3 38 41 48 50 48 49 58 58 52 50 47 45 38 36 32 26 26 26 25 26 24 24 20 21 24 18 19 17 16 14 16 14 13 10 16 10 12 9 9 18 46 46 43 31 31 53 61 63 64 63 63 62 63 63 62
49 49 49 49 49 48 48 48 48 48 48 48 48 47 48 48 48 49 49 49 48 47 47 46 46 45 46 46 41 43 24 -7 26 27 45 50 48 48 47 51 55 50 49 46 39 33 31 29 28 23 23 24 25 20 22 22 26 18 23 22 18 16 14 17 16 15 13 13 11 11 11 13 14 24 52 38 33 31 54 61 64 64 64 63 63 63 63 62
49 49 49 49 48 49 49 49 49 48 48 48 48 48 48 48 49 49 49 48 48 47 46 46 46 46 46 45 39 42 37 24 32 29 47 49 46 45 44 44 47 47 47 43 39 35 30 27 28 24 23 23 23 22 23 23 25 22 16 23 22 16 15 17 16 16 14 14 12 13 15 11 12 11 51 58 59 61 62 64 64 65 64 64 63 63 63 62
50 50 49 49 49 49 48 48 49 49 48 48 48 48 48 48 48 48 48 48 47 47 46 46 46 45 46 40 32 34 33 33 37 32 47 46 36 35 36 31 34 42 41 39 36 34 30 27 28 24 23 21 21 23 24 24 23 22 22 24 23 20 16 17 16 15 15 14 13 13 11 11 10 9 50 58 63 63 64 65 64 65 64 64 63 63 63 63
49 50 50 49 49 49 49 49 49 48 48 48 48 48 48 47 48 48 48 47 46 47 46 46 45 45 46 41 36 31 25 31 33 39 38 33 31 30 28 26 32 34 35 39 40 36 31 29 25 23 20 21 22 22 23 21 19 22 22 24 23 22 21 20 20 20 19 19 14 13 11 11 11 32 54 61 63 63 65 64 64 65 64 64 64 64 63 63
50 50 50 50 49 49 49 49 49 49 49 49 49 49 49 49 48 48 47 47 46 46 46 45 45 45 43 40 37 29 27 35 37 36 33 33 32 31 28 28 31 34 34 34 35 38 32 29 27 26 23 22 23 21 22 20 15 22 22 23 23 22 22 21 19 20 20 20 13 14 13 13 27 40 26 59 63 64 64 64 64 64 63 64 63 63 63 62
49 49 49 49 49 49 49 49 49 49 49 49 49 49 49 49 49 49 48 47 48 48 46 46 45 45 42 40 35 30 33 31 36 36 35 34 33 31 30 31 32 34 36 35 34 36 35 32 27 27 23 20 20 20 21 20 20 18 22 23 23 23 22 20 17 16 15 15 15 16 16 15 34 39 29 60 64 64 63 63 63 63 63 62 62 62 62 62
49 49 50 49 49 49 49 49 49 49 49 49 49 49 49 49 49 49 49 48 48 47 47 46 46 44 43 41 37 35 37 37 38 37 37 36 34 33 33 33 33 33 36 34 34 35 35 33 30 26 20 22 18 19 19 20 19 16 15 14 14 20 21 22 20 19 15 15 15 16 16 13 41 39 39 62 63 63 62 62 62 62 62 62 62 62 61 61
49 49 49 49 49 49 49 49 49 49 49 49 49 49 49 49 49 48 49 48 48 48 47 45 45 44 42 35 35 38 39 39 39 38 37 36 35 34 33 33 33 34 36 35 34 35 34 33 31 27 26 26 21 16 19 21 17 16 14 11 12 12 15 20 21 20 14 15 14 14 11 12 11 36 55 63 63 62 62 61 61 61 61 61 61 61 61 61
49 49 49 49 49 49 49 49 49 49 49 49 49 48 48 48 48 48 48 48 48 48 47 46 45 44 41 35 36 38 38 38 37 37 37 37 34 32 31 31 32 33 35 35 35 35 35 34 31 30 30 26 24 24 22 20 18 14 14 12 13 11 11 14 19 19 16 13 12 13 12 11 12 19 58 63 63 62 60 60 60 60 60 60 60 60 60 61
49 49 49 49 49 49 49 49 49 49 49 49 48 48 47 48 48 48 48 48 47 47 47 46 44 41 37 34 36 36 43 40 37 36 36 35 33 32 30 30 30 31 33 34 33 35 34 34 30 29 28 28 25 21 20 15 15 12 11 11 11 12 12 10 20 16 16 14 10 10 12 11 11 32 61 63 62 62 60 60 59 59 60 60 60 60 60 61
48 49 49 49 49 49 49 49 49 48 48 48 48 48 48 48 48 48 48 47 47 47 46 44 42 41 37 32 31 37 34 31 30 34 37 37 35 32 32 31 30 31 32 31 33 33 33 26 26 27 26 23 21 19 19 17 17 15 11 14 11 10 11 9 9 15 16 11 11 10 9 28 24 52 62 63 62 61 60 60 59 59 59 60 60 60 60 61
47 48 48 48 48 49 50 50 49 49 48 48 48 48 48 48 48 48 47 47 47 46 45 41 42 43 30 34 34 29 26 31 33 33 33 39 35 33 32 32 31 32 32 32 33 31 27 27 26 26 25 20 19 19 18 17 17 16 13 12 13 9 9 9 8 10 14 11 9 10 13 37 39 58 61 62 62 61 60 60 59 59 59 60 60 60 60 60
49 48 48 48 48 49 49 50 50 49 48 48 48 48 46 47 46 46 47 46 45 45 44 44 41 36 32 35 31 30 30 27 27 29 30 30 34 33 32 31 32 32 32 28 29 28 26 23 24 22 22 22 18 17 16 12 14 16 14 13 10 8 9 8 6 7 11 11 10 10 9 15 49 57 59 61 62 61 60 59 59 59 59 60 60 60 60 60
48 48 48 48 48 48 49 50 50 49 47 48 47 46 45 45 42 42 41 39 35 30 28 34 36 24 15 24 30 27 27 28 31 30 29 28 37 33 34 33 34 31 26 24 25 27 22 22 25 23 20 20 17 15 16 13 15 15 12 13 9 7 7 7 8 8 8 8 8 9 9 9 51 56 58 61 61 60 60 60 59 59 59 60 60 60 60 60
48 47 47 48 49 49 49 49 49 49 48 46 44 40 38 36 36 30 39 38 35 31 28 30 36 29 27 28 27 30 32 32 29 28 28 29 36 34 33 33 34 31 25 23 22 25 20 20 19 19 19 18 18 16 16 17 14 12 11 11 7 5 5 7 7 7 7 6 7 9 11 16 52 55 57 60 60 60 59 58 58 59 59 59 60 60 60 60
47 47 47 48 49 49 48 49 49 48 48 45 41 36 33 35 32 29 34 35 35 35 34 34 34 34 31 30 32 31 30 31 30 30 30 39 32 34 33 33 32 28 26 24 22 23 20 20 20 19 19 17 17 18 19 17 14 10 9 10 9 5 4 5 5 6 7 10 8 11 11 33 52 55 57 59 59 58 58 58 58 59 59 59 59 59 60 60
47 48 47 47 48 49 48 48 48 48 48 42 39 36 37 37 38 41 40 32 35 35 35 34 35 34 35 34 34 34 34 31 31 30 30 32 30 31 32 32 30 24 27 24 22 20 19 19 20 19 19 16 16 17 17 17 16 11 9 9 9 7 7 7 8 8 7 6 11 12 13 36 51 55 57 58 58 58 59 58 58 58 59 59 59 59 60 60
47 47 47 47 48 48 47 48 48 47 40 38 37 38 38 40 44 45 42 38 33 35 34 34 33 34 34 35 34 35 32 31 29 27 27 30 31 30 32 30 29 25 26 24 22 20 18 18 20 20 20 15 16 16 16 16 20 16 11 10 9 9 6 6 8 7 8 10 22 33 21 46 51 54 56 57 58 58 59 59 58 59 59 59 59 59 59 60
47 47 47 48 48 48 48 48 47 42 39 40 39 39 41 43 43 42 40 32 29 31 32 33 34 33 33 32 33 33 32 31 30 28 32 27 31 32 32 30 28 24 24 24 23 20 18 18 20 20 20 16 15 15 15 16 15 20 13 13 11 8 6 7 7 12 32 43 39 42 46 48 51 52 54 56 58 58 59 59 58 59 59 60 60 60 60 60
47 47 48 49 48 48 47 47 41 40 42 39 39 42 42 43 43 45 38 31 28 29 33 31 34 33 33 34 34 32 32 31 30 30 32 26 28 31 31 31 27 24 23 24 23 21 19 19 20 19 20 17 15 14 15 15 14 16 15 11 9 9 6 9 10 9 16 32 41 35 31 39 50 51 52 55 56 56 58 58 57 58 59 60 59 60 60 60
46 47 48 48 47 47 48 42 38 41 41 37 38 42 45 44 45 44 36 26 20 22 24 18 27 20 32 27 32 31 30 26 29 30 30 30 32 28 30 29 26 24 23 23 22 22 20 21 20 19 19 19 13 14 14 14 13 15 15 11 10 10 9 8 8 6 7 11 29 33 14 26 47 49 52 54 54 54 57 57 57 58 58 59 59 59 60 60
45 47 48 47 47 47 42 38 41 43 38 38 42 44 44 44 44 40 25 19 14 21 20 21 22 21 25 25 30 25 16 16 24 31 32 36 30 26 22 26 25 24 23 23 21 19 19 19 17 20 19 19 15 12 13 13 13 13 14 10 9 9 9 9 9 9 10 17 21 29 27 35 40 48 52 54 53 53 54 55 56 57 58 58 59 59 60 60
46 46 47 47 47 47 44 45 43 39 39 39 44 42 44 43 41 39 21 1 0 25 26 22 19 22 21 23 28 22 18 23 21 28 36 39 31 23 21 20 23 21 22 20 19 20 20 18 18 17 20 18 18 16 11 14 12 12 12 10 9 9 8 9 8 11 12 13 22 30 36 29 36 42 51 53 51 52 53 54 55 56 57 58 59 59 59 60
45 46 46 46 46 47 46 45 43 40 41 42 44 44 45 42 39 27 16 5 22 24 27 26 31 21 24 25 26 24 20 22 20 34 36 33 26 23 19 20 18 19 20 20 19 19 18 18 18 16 19 18 19 11 11 13 11 8 11 11 12 10 10 9 11 10 11 8 7 19 28 16 25 38 47 49 51 50 52 53 54 55 57 58 58 59 59 59
46 44 45 45 45 44 44 46 43 43 43 44 43 44 43 38 30 19 9 6 28 15 28 28 25 24 29 27 21 22 21 20 22 29 37 33 24 22 21 23 19 15 17 18 17 18 17 24 24 16 17 19 19 13 9 11 11 11 10 8 9 14 13 25 16 15 10 4 9 11 26 18 22 38 45 45 47 51 51 52 54 55 56 57 58 58 59 59
44 46 45 45 44 44 43 40 41 43 44 44 44 43 38 31 22 13 8 10 21 22 29 27 25 29 28 27 26 28 22 20 19 26 25 28 21 20 22 20 22 18 19 16 16 15 15 14 20 17 23 18 19 11 8 10 9 10 8 9 7 11 12 12 12 17 3 5 8 14 27 20 14 26 44 48 49 50 51 51 53 54 55 56 57 58 59 59
44 45 46 45 45 47 42 40 42 46 44 45 43 39 32 20 24 13 12 26 13 18 19 23 27 30 29 30 28 27 20 18 19 24 24 20 23 18 19 20 20 15 14 13 14 15 14 14 14 13 27 16 16 15 8 8 7 7 9 9 8 7 6 3 5 2 6 6 10 18 28 23 19 28 42 47 48 49 51 52 52 53 54 56 57 58 59 60
44 45 47 45 46 45 45 43 46 46 46 45 40 37 28 19 12 18 18 21 12 18 21 30 28 30 30 28 25 26 26 21 19 23 28 24 19 18 19 20 21 17 12 17 14 14 16 15 12 12 18 21 15 14 8 5 6 6 7 9 8 5 4 2 5 7 9 12 13 27 26 18 26 29 39 45 47 49 49 51 52 53 54 56 57 58 59 60
45 45 43 44 45 45 46 46 46 47 46 43 39 32 26 18 14 25 21 22 18 28 29 27 28 28 29 25 25 27 23 24 17 19 23 23 15 17 16 17 19 18 22 19 13 12 11 12 14 11 11 15 16 15 12 12 6 5 7 6 9 6 5 3 6 4 6 9 14 20 11 11 13 19 38 45 46 48 49 50 52 54 55 56 58 58 59 60
45 44 43 43 44 46 46 46 47 47 45 40 34 27 19 17 21 22 20 23 26 31 29 32 27 27 25 26 28 28 25 24 23 17 20 21 18 20 19 17 21 19 20 13 17 14 12 15 18 13 14 14 14 17 13 10 8 7 8 8 8 7 18 8 14 11 12 8 13 18 13 19 15 36 44 45 47 50 51 52 54 55 56 57 58 58 59 59
44 42 43 41 43 46 46 47 47 46 44 37 29 23 19 21 20 25 25 31 32 29 29 30 28 26 26 26 28 27 28 24 25 18 18 17 16 16 20 20 19 19 17 15 18 13 13 15 15 13 14 12 12 13 13 12 12 11 6 6 6 14 18 8 8 20 13 7 4 14 21 30 35 34 36 43 46 49 52 53 54 55 56 57 57 58 58 59
41 42 41 42 44 47 48 48 47 46 42 35 28 21 24 26 26 27 31 30 31 33 30 24 24 25 24 23 26 26 26 25 24 19 17 16 17 15 17 18 20 20 18 19 17 19 13 16 18 12 11 12 11 12 11 12 14 6 6 7 15 18 15 10 4 11 9 8 10 17 18 28 23 24 39 43 46 49 51 53 53 54 56 56 57 58 58 59
41 42 42 43 45 49 49 48 47 43 38 32 26 28 29 26 30 27 33 33 32 33 29 26 27 28 24 22 23 25 26 20 21 19 18 17 15 19 14 16 18 19 19 18 16 20 18 10 13 13 12 12 12 11 8 8 9 7 7 11 5 7 6 15 13 4 5 3 3 12 21 26 21 22 42 43 44 48 50 52 54 55 56 56 57 58 58 59
41 40 37 42 47 50 49 48 45 40 34 28 26 26 30 30 32 31 34 32 33 31 28 28 26 29 28 25 25 24 23 18 20 20 14 17 12 19 14 17 18 18 18 17 18 20 23 14 16 15 11 12 8 8 10 7 7 9 8 5 13 13 13 10 13 15 13 5 5 9 23 21 29 27 42 42 45 47 49 52 53 55 56 56 57 57 58 58
40 38 35 43 49 50 49 47 41 37 31 26 28 28 31 30 31 32 37 35 33 31 29 29 29 28 29 28 26 21 22 20 20 20 18 18 15 20 16 17 18 18 17 18 18 22 15 21 10 16 11 11 9 9 9 8 7 5 6 6 9 13 16 13 19 7 8 8 7 11 14 21 27 32 42 43 45 47 49 51 52 54 55 56 57 57 58 58
41 36 35 46 49 49 47 43 36 31 30 32 33 30 31 29 32 33 35 37 35 36 34 32 31 28 29 27 22 27 20 21 19 18 18 18 15 13 19 16 18 19 16 16 16 21 14 18 14 22 10 10 11 10 8 8 6 6 9 10 6 9 9 4 11 13 16 7 5 12 11 22 28 41 41 43 45 48 50 50 51 53 55 56 57 57 58 58
37 29 33 47 49 47 41 32 32 33 31 30 29 33 31 35 34 34 35 37 35 34 37 34 33 32 30 28 26 27 23 20 21 18 17 18 19 17 17 18 18 17 16 16 18 22 21 24 19 13 15 12 12 10 9 8 7 7 6 7 8 15 13 7 4 10 10 11 21 22 14 19 30 38 42 44 46 48 50 50 51 53 54 56 57 57 58 58
36 33 40 47 49 44 38 31 33 32 31 33 36 34 35 35 34 35 34 35 35 36 35 33 33 31 32 27 29 28 28 24 20 20 19 18 20 18 18 17 19 16 17 18 16 16 27 16 16 17 18 15 10 10 10 9 7 6 7 11 8 10 15 11 15 19 10 15 13 11 11 19 28 41 43 45 47 48 48 49 49 53 55 56 57 57 58 58
36 36 39 46 48 46 36 28 29 31 32 34 34 33 35 34 34 33 33 34 35 34 33 33 31 32 27 31 31 29 30 18 25 22 24 21 20 21 16 16 18 16 15 18 18 29 14 21 16 15 8 8 11 10 8 9 7 10 9 14 7 8 13 24 20 18 7 15 15 14 9 16 31 43 45 47 48 48 49 49 52 54 55 56 57 57 58 58
37 39 38 42 46 42 33 33 31 31 31 31 31 30 31 34 35 35 34 33 36 36 33 33 32 35 33 33 32 33 32 26 25 29 26 24 23 27 18 15 17 18 19 30 26 22 17 24 18 12 7 6 6 6 8 8 7 12 15 8 8 6 16 16 8 14 9 18 16 12 12 18 28 42 45 46 47 48 49 50 52 54 55 56 57 57 57 57
35 28 31 36 42 41 39 39 34 31 30 31 30 31 32 31 34 36 36 34 35 35 34 34 35 35 33 31 29 30 29 32 28 25 23 22 26 31 17 15 16 16 27 28 35 27 28 31 23 22 18 14 12 13 15 17 11 7 11 8 9 11 13 16 21 15 13 17 16 18 18 20 31 43 44 46 47 48 49 51 52 54 55 57 57 57 57 57
35 29 31 31 35 38 35 37 32 32 31 33 29 32 31 32 34 35 36 32 37 35 36 32 33 32 31 21 24 26 30 31 32 30 29 28 29 26 24 14 16 21 32 31 40 29 31 24 26 26 23 21 17 18 14 12 9 10 11 11 12 17 18 18 15 15 22 17 11 24 28 25 28 40 44 45 46 48 49 50 52 54 55 56 56 57 55 57
27 29 36 37 32 30 31 32 36 33 33 33 31 34 32 33 34 34 37 35 35 36 32 31 30 31 28 25 29 26 29 30 29 25 28 30 28 33 15 14 14 24 32 32 36 26 25 19 27 26 26 25 22 16 17 10 7 12 12 14 14 19 18 16 15 23 20 12 16 23 30 30 32 39 45 46 47 48 49 51 52 54 56 56 56 56 56 56
36 36 35 36 31 34 34 34 35 35 34 34 32 33 32 33 34 36 36 34 35 35 34 29 29 29 27 28 32 31 29 24 23 28 29 28 31 30 18 22 28 31 34 27 23 34 27 24 25 26 25 26 29 23 21 12 14 10 13 12 14 20 19 18 19 25 20 17 21 27 33 33 33 37 43 44 46 47 48 51 53 55 55 56 56 56 56 56
31 31 31 34 34 33 34 34 35 35 32 35 32 34 35 35 35 37 38 34 30 29 35 33 30 28 29 30 31 32 31 30 29 28 32 32 31 29 19 24 25 26 27 25 20 27 24 24 33 28 21 24 26 30 27 19 15 13 13 12 16 17 18 22 26 27 32 29 32 33 33 33 37 40 45 47 50 50 51 52 53 54 55 56 56 55 55 55
36 37 37 32 29 30 33 34 34 34 32 32 32 33 35 34 35 37 38 39 36 33 34 33 34 35 35 35 35 35 35 33 33 34 34 32 29 33 31 29 25 24 26 24 24 27 28 26 29 25 18 21 23 26 20 19 15 13 15 17 19 18 16 22 22 28 27 24 33 34 32 33 37 44 48 49 50 50 50 51 53 54 55 56 55 55 55 55
37 37 37 35 29 33 32 33 33 34 29 32 34 34 34 34 36 37 35 38 38 38 38 36 37 35 33 29 28 33 36 36 37 36 36 36 35 35 35 35 35 22 26 26 33 28 30 26 21 20 19 16 24 27 20 18 13 10 11 17 21 20 21 25 23 30 30 34 33 27 28 34 40 48 49 49 49 49 50 51 52 53 55 55 55 55 55 55